Simultaneous Nadir Overpasses (SNOs) Predictions

Prediction of SNOs between METOP-B and TERRA Satellite Orbit:

Table of predicted SNOs for the next 14.0 days since TLE Epoch: 4/17/2021
Index Date (METOP-B) Time (METOP-B) Lat,Lon (METOP-B) SZA (METOP-B ) Date (TERRA) Time (TERRA) Lat,Lon (TERRA) SZA (TERRA ) Distance(km) Time Diff (sec)
1 04/18/2021 16:44:47 81.31, -24.63 73.03 04/18/2021 16:44:51 81.32, -24.52 73.05 2.00 4
2 04/18/2021 17:35:26 -81.32, 143.20 106.93 04/18/2021 17:34:18 -81.32, 143.01 106.99 3.28 68
3 04/21/2021 11:28:28 -81.30,-126.21 107.99 04/21/2021 11:29:39 -81.30,-126.09 107.94 2.01 71
4 04/21/2021 12:19:08 81.31, 41.60 72.06 04/21/2021 12:19:05 81.31, 41.65 72.06 0.86 3
5 04/24/2021 07:02:47 -81.31, -59.58 108.88 04/24/2021 07:03:51 -81.31, -59.55 108.85 0.56 64
6 04/24/2021 07:53:27 81.31, 108.20 71.17 04/24/2021 07:53:17 81.31, 108.16 71.16 0.81 10
7 04/27/2021 02:37:07 -81.31, 7.03 109.75 04/27/2021 02:38:04 -81.31, 6.95 109.73 1.37 57
8 04/27/2021 03:27:47 81.32, 174.79 70.30 04/27/2021 03:27:30 81.31, 174.63 70.27 2.69 17
9 04/29/2021 22:11:28 -81.31, 73.23 110.64 04/29/2021 22:12:17 -81.31, 73.40 110.59 2.96 49



Historial Predications of SNOs between METOP-B and TERRA
